Location: Newark
(11.2914°S, 14.4718°E)
Time: 16:05:02
(UTC+00:00)

Transit 4A - All Passes

Search period start: 22 September 2019 00:00
Search period end: 02 October 2019 00:00
Orbit: 865 x 980 km, 66.8° (Epoch: 21 September)

Date Brightness Start Highest point End Pass type
(mag) Time Alt. Az. Time Alt. Az. Time Alt. Az.
22 Sep - 08:17:43 10° SSW 08:24:04 88° WNW 08:30:27 10° NNE daylight
22 Sep - 19:38:59 10° NE 19:42:11 15° ENE 19:45:23 10° ESE night (unlit)
22 Sep - 21:22:43 10° NW 21:28:08 41° WSW 21:33:33 10° S night (unlit)
23 Sep - 06:43:44 10° SSE 06:47:00 14° ESE 06:50:18 10° E daylight
23 Sep - 08:27:13 10° SSW 08:33:20 54° WNW 08:39:32 10° N daylight
23 Sep - 19:46:38 10° NNE 19:51:24 27° ENE 19:56:11 10° SE night (unlit)
23 Sep - 21:32:56 10° WNW 21:37:30 24° WSW 21:42:05 10° SSW night (unlit)
24 Sep - 06:51:25 10° SSE 06:56:26 25° ESE 07:01:29 10° ENE daylight
24 Sep - 08:37:05 10° SW 08:42:36 32° WNW 08:48:09 10° N daylight
24 Sep - 19:55:07 10° N 20:00:38 47° ENE 20:06:10 10° SE night (unlit)
24 Sep - 21:44:08 10° W 21:46:55 14° WSW 21:49:44 10° SW night (unlit)
25 Sep - 06:59:56 10° S 07:05:49 40° ESE 07:11:45 10° NE daylight
25 Sep - 08:47:34 10° WSW 08:51:51 19° WNW 08:56:08 10° NNW daylight
25 Sep - 20:04:06 10° NNW 20:09:54 82° ENE 20:15:42 10° SSE night (unlit)
26 Sep - 07:08:52 10° SSW 07:15:09 68° ESE 07:21:29 10° NNE daylight
26 Sep - 09:00:24 10° W 09:01:04 10° WNW 09:01:45 10° WNW daylight
26 Sep - 20:13:30 10° NNW 20:19:11 58° WSW 20:24:53 10° S night (unlit)
27 Sep - 07:18:08 10° SSW 07:24:26 74° WNW 07:30:49 10° NNE daylight
27 Sep - 18:38:36 10° NNE 18:42:31 19° ENE 18:46:26 10° ESE night (unlit)
27 Sep - 20:23:21 10° NW 20:28:30 33° WSW 20:33:42 10° S night (unlit)
28 Sep - 05:43:22 10° SSE 05:47:27 18° ESE 05:51:32 10° ENE daylight
28 Sep - 07:27:45 10° SW 07:33:42 44° WNW 07:39:43 10° N daylight
28 Sep - 18:46:38 10° N 18:51:45 33° ENE 18:56:51 10° SE visible
28 Sep - 20:33:49 10° WNW 20:37:53 20° WSW 20:41:59 10° SSW night (unlit)
29 Sep - 05:51:27 10° S 05:56:52 29° ESE 06:02:18 10° NE daylight
29 Sep - 07:37:47 10° SW 07:42:58 27° WNW 07:48:10 10° NNW daylight
29 Sep - 18:55:19 10° N 19:00:59 57° ENE 19:06:39 10° SSE visible
29 Sep - 20:45:57 10° WSW 20:47:21 11° WSW 20:48:44 10° SW night (unlit)
30 Sep - 06:00:08 10° S 06:06:13 49° ESE 06:12:20 10° NE daylight
30 Sep - 07:48:40 10° WSW 07:52:12 15° WNW 07:55:45 10° NW daylight
30 Sep - 19:04:27 10° NNW 19:10:14 83° WSW 19:16:04 10° SSE visible
01 Oct - 06:09:11 10° SSW 06:15:32 81° ESE 06:21:56 10° NNE daylight
01 Oct - 17:31:13 10° NE 17:33:38 13° ENE 17:36:03 10° E visible
01 Oct - 19:14:01 10° NW 19:19:33 47° WSW 19:25:07 10° S visible
